Regional Weather Roundup
Issued by NWS

Home | Current Version | Previous Version | Text Only | Print | Product List | Glossary Off
Versions: 1 2 3 4 5 6 7 8 9 10 11 12 13 14 15 16 17 18 19 20 21 22 23 24 25 26 27 28 29 30 31 32 33 34 35 36 37 38 39 40 41 42 43 44 45 46 47 48 49 50

523
ASUS45 KCYS 271810
RWRWY

WYOMING REGIONAL WEATHER ROUNDUP
NATIONAL WEATHER SERVICE CHEYENNE WY
1200 PM MDT SAT MAY 27 2017

NOTE:  "FAIR" INDICATES FEW OR NO CLOUDS BELOW 12,000 FEET
WITH NO SIGNIFICANT WEATHER AND/OR OBSTRUCTIONS TO VISIBILITY.

WYZ001-271900-
YELLOWSTONE NATIONAL PARK

CITY           SKY/WX    TMP DP  RH WIND       PRES   REMARKS
LK YELLOWSTONE   N/A     39  33  79 CALM      30.30R
6HR MIN TEMP:  29; 6HR MAX TEMP:  40;

W YELLOWSTONE  NOT AVBL

$$
WYZ002>013-054>058-071-098>099-271900-
NORTHERN WYOMING

CITY           SKY/WX    TMP DP  RH WIND       PRES   REMARKS
JACKSON        MOSUNNY   52  34  50 CALM      30.25S
CODY           FAIR      61  28  28 NE7       30.17S
GREYBULL       FAIR      63  35  35 W9        30.14S
6HR MIN TEMP:  36; 6HR MAX TEMP:  64;

WORLAND        FAIR      61  38  42 W8        30.15S
6HR MIN TEMP:  35; 6HR MAX TEMP:  61;

SHERIDAN       FAIR      65  37  35 N14       30.10R
6HR MIN TEMP:  41; 6HR MAX TEMP:  65;

BUFFALO        FAIR      62  35  36 N23G32    30.12S
6HR MIN TEMP:  39; 6HR MAX TEMP:  62;

GILLETTE       FAIR      62  37  39 NW15G22   30.09R
6HR MIN TEMP:  43; 6HR MAX TEMP:  62;

HULETT         FAIR      63  32  31 NW8G21    30.07F
NEWCASTLE      FAIR      61  34  36 NW14G22   30.09S

$$
WYZ014>020-022>026-101>103-271900-
CENTRAL WYOMING

CITY           SKY/WX    TMP DP  RH WIND       PRES   REMARKS
BIG PINEY      FAIR      54  25  32 NE8       30.24R
6HR MIN TEMP:  30; 6HR MAX TEMP:  56;

PINEDALE       FAIR      52  23  32 NW6G16    30.24S
DUBOIS         MOCLDY    48  25  40 N7        30.23R
LANDER         FAIR      57  32  38 VRB6      30.19R
6HR MIN TEMP:  37; 6HR MAX TEMP:  57;

RIVERTON       FAIR      57  30  35 NE6       30.19S
6HR MIN TEMP:  38; 6HR MAX TEMP:  57;

CASPER         FAIR      56  34  43 W7        30.16R
6HR MIN TEMP:  42; 6HR MAX TEMP:  57;

DOUGLAS        FAIR      55  38  52 W7        30.15S
6HR MIN TEMP:  42; 6HR MAX TEMP:  56;


$$
WYZ021-027>030-104>119-271900-
SOUTHERN WYOMING

CITY           SKY/WX    TMP DP  RH WIND       PRES   REMARKS
EVANSTON       FAIR      52  29  41 N10       30.27R
6HR MIN TEMP:  34; 6HR MAX TEMP:  52;

KEMMERER         N/A     52  30  43 W8        30.26R
FORT BRIDGER   FAIR      54  31  40 W6        30.28S
ROCK SPRINGS   FAIR      51  27  39 VRB6      30.23S
6HR MIN TEMP:  36; 6HR MAX TEMP:  53;

DIXON            N/A     53  36  53 NW10      30.23R
RAWLINS        PTSUNNY   50  32  50 NW15G21   30.21R
6HR MIN TEMP:  38; 6HR MAX TEMP:  51;

SARATOGA       MOCLDY    50  34  53 NW15      30.21S
LARAMIE        PTSUNNY   44  36  73 N17       30.18R
6HR MIN TEMP:  37; 6HR MAX TEMP:  46; 6HR PCP: TRACE;

CHEYENNE       FAIR      50  37  61 N10       30.14S
6HR MIN TEMP:  43; 6HR MAX TEMP:  50; 6HR PCP: TRACE;

TORRINGTON     LGT RAIN  52  47  83 NW7       30.09R
6HR MIN TEMP:  46; 6HR MAX TEMP:  59; 6HR PCP:  0.03;

PINE BLUFFS    MOCLDY    55  41  58 NW17G23   30.12S

$$




USA.gov is the U.S. government's official web portal to all federal, state and local government web resources and services.